Tracking 17560 objects as of 11-February-2016
HD Live streaming from Space Station
objects crossing your sky now

AVUM R/B

Track AVUM R/B now!
10-day predictions


NORAD ID: 38086
Int'l Code: 2012-006K
Perigee: 247.9 km
Apogee: 637.9 km
Inclination: 69.5 °
Period: 93.3 minutes
Semi major axis: 6813 km
RCS: 4.0982 m2 (large)
Launch date: February 13, 2012
Source: European Space Agency (ESA)
Launch site: FRENCH GUIANA (FRGUI)

Note: This is a ROCKET BODY
Your satellite tracking list
Your tracking list is empty





NASA's NSSDC Master Catalog

Two Line Element Set (TLE):
1 38086U 12006K   16041.54377909  .00097625  60637-5  42731-3 0  9996
2 38086  69.4732 236.5847 0286184 211.3477 147.0371 15.4350462321347
Source of the keplerian elements: AFSPC

N2YO: 815